{"data":{"norad_id":57776,"epoch":"2026-09-20T22:25:39.214560Z","epoch_age_seconds":110920,"freshness":"FRESH","line1":"1 57776U 23134F   26263.93448165  .00001206  00000+0  53333-4 0  9993","line2":"2 57776  43.0035 172.1383 0001017 266.1288  93.9447 15.27575698169362","mean_motion":15.27575698,"eccentricity":0.0001017,"inclination_deg":43.0035,"raan_deg":172.1383,"arg_perigee_deg":266.1288,"mean_anomaly_deg":93.9447,"bstar":5.3333e-5,"rev_number":16936,"period_min":94.267014190219,"perigee_km":482.36419386948,"apogee_km":483.75976174156,"semimajor_km":6861.1989778055,"source":"CELESTRAK","updated_at":"2026-09-21T09:00:33.684480Z"}}